Погода в Бресте

Погода в Бресте : погода сейчас, прогноз погоды и архив. Всё, что Вы хотите узнать о погоде в Бресте!

Поиск расширенной информации на нашем сайте:

Другие новости

Новости СМИ2

Главная страница сайта

Новости сайта

03.07.2017

Напоминаем, что на нашем специализированном сайте Метеоцентр.Азия вы можете получить высокодетализированные автоматические прогнозы погоды по пунктам России, СНГ и мира в авиационном формате (включающие направление и скорость ветра, видимость, явления погоды, количество и форму облачности, нижнюю и верхнюю границу облачности).

Рекомендуем: Колодец унифицированный ВГ 12 купить заказать Колодец унифицированный 12.

Погода в Бресте - сегодня

Время (UTC), дата Ветер
(°,м/с) 
Видим.   Явления Облачность Т
(°С)
Тd
(°С)
f(%) Тe
(°С)
Pmin
(гПа)
dP
(гПа)
Po
(мм)
O2
(г/м3)
Тmin Tmax R s Состояние
почвы
09 18.07.17 270 (З) 20000 м    6/6 1350 м 
[Cu med, cong]
+19.9 +8.3 47 +21  1021.6  -0.1  753  282           
12 18.07.17 270 (З) 30000 м    4/4 1000 м 
[Cu med, cong]
+22.4 +6.6 36 +22  1020.8  -0.6  753  279           
15 18.07.17 320 (СЗ) 30000 м    3/3 1000 м 
[Cu hum]
+22.5 +7.5 38 +23  1020.2  -0.6  752  279           
18 18.07.17 320 (СЗ) 20000 м    ясно 
+20.3 +8.3 46 +20  1020.4  0.1  753  281    +23       
21 18.07.17 тихо ()   15000 м    ясно 
+13.7 +10.5 81 +15  1021.2  0.3  753  287           
00 19.07.17 тихо ()   15000 м    ясно 
+12 +10.2 89 +13  1021.2  -0.1  753  289           
03 19.07.17 тихо ()   20000 м    3/0 верхняя 
[Ci sp]
+10.5 +9.3 92 +11  1021.1  -0.2  753  290           
06 19.07.17 тихо ()   30000 м    6/0 средняя 
[Ac trans]
+17.9 +10.5 62 +20  1020.6  753  283  +10.3         
09 19.07.17 080 (В) 30000 м    4/3 1000 м верхняя 
[Cu hum|Ci sp]
+22.4 +8.9 42 +22  1019.9  -0.4  752  279           
12 19.07.17 210 (ЮЗ) 30000 м    6/3 1000 м средняя, верхняя 
[Cu hum|Ac trans|Ci fib]
+25.2 +8.7 35 +25  1018.3  -1.4  751  276           
15 19.07.17 260 (З) 30000 м    6/6 1000 м 
[Cu hum]
+26 +10.2 37 +27  1016.5  -1.7  750  274           
18 19.07.17 090 (В) 20000 м    3/0 средняя 
[Ac trans]
+23.7 +10 42 +25  1016.1  -0.5  750  276    +26.2       
21 19.07.17 120 (ЮВ) 30000 м    ясно 
+19.8 +11.3 58 +24  1016.1  -0.3  749  279           
00 20.07.17 тихо ()   30000 м    3/0 верхняя 
[Ci fib]
+17.5 +11.3 67 +20  1015.4  -0.8  749  281           
03 20.07.17 210 (ЮЗ) 30000 м    9/0 средняя, верхняя 
[Ac trans|Cs]
+16.8 +13.7 82 +25  1014.7  -0.8  748  281           
06 20.07.17 тихо ()   20000 м    8/0 верхняя 
[Cs]
+19.3 +14.8 75 +28  1013.7  -0.8  748  278  +15.9         
09 20.07.17 260 (З) 30000 м    9/1 1000 м верхняя 
[Cu med, cong|Cs]
+23 +15.8 64 +33  1012.6  -0.8  747  274           
12 20.07.17 360 (С) 30000 м    9/3 1000 м верхняя 
[Cu med, cong|Cs]
+25.4 +15.1 53 +34  1011.6  -0.8  746  272           
15 20.07.17 320 (СЗ) 30000 м    9/4 1000 м верхняя 
[Cu med, cong|Cs]
+26.8 +14.9 48 +35  1011  -0.5  746  271           
18 20.07.17 тихо ()   30000 м    10/0 средняя 
[Ac und]
+24.8 +16 58 +35  1011.1  -0.1  746  272    +27.5       
21 20.07.17 230 (ЮЗ) 30000 м    9/0 средняя 
[Ac trans]
+20.4 +15.6 74 +30  1011.9  0.5  746  276           
00 21.07.17 тихо ()   20000 м    ясно 
+17.7 +15.7 88 +28  1012.1  746  279           
03 21.07.17 тихо ()   30000 м    9/0 верхняя 
[Ci fib]
+16 +14.9 93 +25  1012.3  0.2  746  281           
06 21.07.17 тихо ()   20000 м    1/0 верхняя 
[Ci fib]
+21.5 +16.2 72 +32  1012.6  0.7  747  275  +15.7         
09 21.07.17 030 (СВ) 30000 м    8/0 средняя 
[Ac und]
+24.6 +15.8 58 +35  1012.7  0.3  747  273           
Время (UTC), дата Ветер
(°,м/с) 
Видим.   Явления Облачность Т
(°С)
Тd
(°С)
f(%) Тe
(°С)
Pmin
(гПа)
dP
(гПа)
Po
(мм)
O2
(г/м3)
Тmin Tmax R s Состояние
почвы

Для получения пояснительной информации подведите курсор к названию столбца.

ПОГОДА в Бресте - архив

Всё, что Вы хотите узнать о погоде в Бресте - удобно и подробно!

Выберите нужную дату (начиная с 1 января 2015* года) и нажмите кнопку "Найти".
Будут отображены архивные сводки погоды по пункту Брест, начиная с указанной даты.


Отображать данные в формате CSV (для использования в таблицах Excel)


Внимание! Наш архив погоды предназначен исключительно для личного некоммерческого использования в познавательных целях. Если Вам необходимы официальные справки о состоянии погоды (для производственных, юридических, коммерческих и т.п. целей), обращайтесь в органы Росгидромета.

*Примечание: данная дата относится к архиву по метеостанциям СССР (Россия, СНГ, Балтия).
Архив по метеостанциям Зарубежной Европы и Азии (кроме Китая) хранится 10 дней, по другим регионам земного шара (Китай, Африка, Америка, Австралия, Океания) - 1 день.

Брест - район местоположения метеостанции


Название, широта, долгота, высота метеостанции:
Брест 52.1°ш. 23.7°д. 146 м над ур. моря [Беларусь]

Дополнительная информация

В oтличие oт бoльшинства пoгoдных сайтoв мы публикуем пoдрoбную метеoинфoрмацию в детальнoм прoфессиoнальнoм фoрмате.

Характеристики температуры и влажнoсти вoздуха измеряются на высoте 2 м в тени вдали oт зданий и деревьев.
Скoрoсть ветра измеряется на высoте 10 м (на урoвне рoста челoвека скoрoсть ветра ниже в 1.5-2 раза). Если метеoстанция нахoдится в гoрoде или в лесу, тo скoрoсть ветра занижена на 2-4 м/с пo сравнению с oткрытым местoм. Скoрoсть ветра над акватoриями крупных рек и oзёр, а также на вершинах хoлмoв на 2-5 м/с выше, чем в oбычных услoвиях.
Атмoсфернoе давление в разных тoчках местнoсти мoжет значительнo oтличаться oт давления на метеoстанции, в зависимoсти oт услoвий рельефа (при пoдъёме на 10 м давление пoнижается примернo на 1 мм рт.ст.).